When you browse on this site, cookies collect data to enhance your experience and personalize the content and advertising you see.
Visit our Privacy Policy to learn more. By continuing to use the site, you agree to this use of cookies and data.
  • en France
  • Liste des pays
  • À 7 jours
  • Température de l'eau
  • Carte satellitaire
  • Carte météo
  • Widgets météo
  • user-avatar
    Se connecter

    Météo par heure à Uige

    Ce jour, 16 Janvier, Mercredi

    Heure Température Précipitation Vent Pression Humidité
    00:00 +19°C° 0.3 mm 0 m/s 692 mmHg 98%
    01:00 +19°C° 0 mm 0 m/s 692 mmHg 98%
    02:00 +19°C° 0.3 mm 0 m/s 692 mmHg 98%
    03:00 +19°C° 0.3 mm 0 m/s 691 mmHg 99%
    04:00 +18°C° 0.3 mm 0 m/s 691 mmHg 99%
    05:00 +19°C° 0.3 mm 0 m/s 692 mmHg 99%
    06:00 +19°C° 0.3 mm 0 m/s 692 mmHg 98%
    07:00 +20°C° 0 mm 0 m/s 692 mmHg 98%
    08:00 +22°C° 0.2 mm 0 m/s 693 mmHg 88%
    09:00 +26°C° 0.2 mm 1 m/s 693 mmHg 79%
    10:00 +28°C° 0.2 mm 1 m/s 693 mmHg 70%
    11:00 +29°C° 0.9 mm 1 m/s 693 mmHg 72%
    12:00 +29°C° 0.9 mm 1 m/s 692 mmHg 75%
    13:00 +29°C° 0.9 mm 1 m/s 691 mmHg 77%
    14:00 +28°C° 1.7 mm 1 m/s 691 mmHg 82%
    15:00 +27°C° 1.7 mm 1 m/s 690 mmHg 86%
    16:00 +27°C° 1.7 mm 1 m/s 690 mmHg 90%
    17:00 +25°C° 0.6 mm 1 m/s 690 mmHg 92%
    18:00 +24°C° 0.6 mm 1 m/s 690 mmHg 93%
    19:00 +22°C° 0.6 mm 1 m/s 690 mmHg 95%
    20:00 +22°C° 0.3 mm 1 m/s 690 mmHg 96%
    21:00 +20°C° 0.3 mm 0 m/s 691 mmHg 96%
    22:00 +19°C° 0.3 mm 0 m/s 692 mmHg 97%
    23:00 +19°C° 0.7 mm 0 m/s 692 mmHg 98%

    Demain, 17 Janvier, Jeudi

    Heure Température Précipitation Vent Pression Humidité
    00:00 +21°C° 0.7 mm 1 m/s 691 mmHg 98%
    01:00 +21°C° 0.7 mm 1 m/s 691 mmHg 99%
    02:00 +21°C° 0.1 mm 1 m/s 691 mmHg 99%
    03:00 +21°C° 0.1 mm 1 m/s 691 mmHg 99%
    04:00 +21°C° 0.1 mm 1 m/s 691 mmHg 99%
    05:00 +19°C° 0 mm 0 m/s 691 mmHg 98%
    06:00 +19°C° 0 mm 0 m/s 691 mmHg 97%
    07:00 +19°C° 0 mm 0 m/s 692 mmHg 96%
    08:00 +22°C° 0.1 mm 0 m/s 692 mmHg 87%
    09:00 +24°C° 0.1 mm 0 m/s 692 mmHg 78%
    10:00 +28°C° 0.1 mm 1 m/s 693 mmHg 69%
    11:00 +28°C° 0.8 mm 1 m/s 692 mmHg 72%
    12:00 +28°C° 0.8 mm 1 m/s 692 mmHg 75%
    13:00 +28°C° 0.8 mm 1 m/s 691 mmHg 77%
    14:00 +27°C° 1.2 mm 1 m/s 690 mmHg 82%
    15:00 +27°C° 1.2 mm 1 m/s 690 mmHg 87%
    16:00 +24°C° 1.2 mm 0 m/s 689 mmHg 91%
    17:00 +23°C° 0.3 mm 0 m/s 689 mmHg 92%
    18:00 +21°C° 0.3 mm 0 m/s 690 mmHg 92%
    19:00 +20°C° 0.3 mm 0 m/s 690 mmHg 93%
    20:00 +20°C° 0.3 mm 0 m/s 690 mmHg 94%
    21:00 +20°C° 0.3 mm 0 m/s 691 mmHg 95%
    22:00 +19°C° 0.3 mm 0 m/s 692 mmHg 96%
    23:00 +19°C° 0.5 mm 0 m/s 691 mmHg 97%

    Après-demain, 18 Janvier, Vendredi

    Heure Température Précipitation Vent Pression Humidité
    00:00 +19°C° 0.5 mm 0 m/s 691 mmHg 98%
    01:00 +21°C° 0.5 mm 1 m/s 691 mmHg 99%
    02:00 +21°C° 0.2 mm 1 m/s 691 mmHg 99%
    03:00 +21°C° 0.2 mm 1 m/s 691 mmHg 99%
    04:00 +21°C° 0.2 mm 1 m/s 691 mmHg 99%
    05:00 +21°C° 0 mm 1 m/s 691 mmHg 98%
    06:00 +22°C° 0 mm 1 m/s 691 mmHg 97%
    07:00 +20°C° 0 mm 0 m/s 692 mmHg 96%
    08:00 +24°C° 0 mm 1 m/s 692 mmHg 84%
    09:00 +26°C° 0 mm 1 m/s 693 mmHg 72%
    10:00 +29°C° 0 mm 1 m/s 693 mmHg 60%
    11:00 +29°C° 0.3 mm 1 m/s 693 mmHg 59%
    12:00 +30°C° 0.3 mm 2 m/s 692 mmHg 58%
    13:00 +31°C° 0.3 mm 2 m/s 691 mmHg 56%
    14:00 +30°C° 1.1 mm 2 m/s 691 mmHg 66%
    15:00 +29°C° 1.1 mm 2 m/s 690 mmHg 75%
    16:00 +28°C° 1.1 mm 1 m/s 690 mmHg 84%
    17:00 +26°C° 1.5 mm 2 m/s 690 mmHg 88%
    18:00 +24°C° 1.5 mm 2 m/s 690 mmHg 91%
    19:00 +23°C° 1.5 mm 2 m/s 691 mmHg 94%
    20:00 +22°C° 0.8 mm 1 m/s 691 mmHg 96%
    21:00 +22°C° 0.8 mm 1 m/s 692 mmHg 97%
    22:00 +22°C° 0.8 mm 1 m/s 692 mmHg 98%
    23:00 +22°C° 0.4 mm 1 m/s 692 mmHg 99%

    19 Janvier, Samedi

    Heure Température Précipitation Vent Pression Humidité
    00:00 +22°C° 0.4 mm 1 m/s 692 mmHg 99%
    01:00 +22°C° 0.4 mm 1 m/s 691 mmHg 99%
    02:00 +22°C° 0 mm 1 m/s 691 mmHg 99%
    03:00 +21°C° 0 mm 1 m/s 691 mmHg 99%
    04:00 +21°C° 0 mm 1 m/s 691 mmHg 99%
    05:00 +21°C° 0 mm 1 m/s 691 mmHg 99%
    06:00 +19°C° 0 mm 0 m/s 691 mmHg 98%
    07:00 +19°C° 0 mm 0 m/s 692 mmHg 98%
    08:00 +21°C° 0 mm 0 m/s 692 mmHg 89%
    09:00 +25°C° 0 mm 1 m/s 693 mmHg 81%
    10:00 +26°C° 0 mm 1 m/s 693 mmHg 72%
    11:00 +27°C° 0.1 mm 1 m/s 693 mmHg 67%
    12:00 +29°C° 0.1 mm 2 m/s 692 mmHg 62%
    13:00 +30°C° 0.1 mm 2 m/s 692 mmHg 57%
    14:00 +30°C° 0.1 mm 2 m/s 691 mmHg 59%
    15:00 +29°C° 0.1 mm 2 m/s 691 mmHg 61%
    16:00 +29°C° 0.1 mm 2 m/s 690 mmHg 63%
    17:00 +27°C° 0.1 mm 2 m/s 690 mmHg 72%
    18:00 +25°C° 0.1 mm 1 m/s 691 mmHg 80%
    19:00 +23°C° 0.1 mm 1 m/s 691 mmHg 89%
    20:00 +22°C° 0 mm 1 m/s 691 mmHg 89%
    21:00 +20°C° 0 mm 0 m/s 692 mmHg 90%
    22:00 +19°C° 0 mm 0 m/s 692 mmHg 90%
    23:00 +19°C° 0 mm 0 m/s 692 mmHg 91%

    20 Janvier, Dimanche

    Heure Température Précipitation Vent Pression Humidité
    00:00 +21°C° 0 mm 1 m/s 691 mmHg 92%
    01:00 +20°C° 0 mm 1 m/s 691 mmHg 94%
    02:00 +20°C° 0 mm 1 m/s 691 mmHg 95%
    03:00 +20°C° 0 mm 1 m/s 690 mmHg 97%
    04:00 +20°C° 0 mm 1 m/s 690 mmHg 98%
    05:00 +21°C° 0 mm 1 m/s 691 mmHg 97%
    06:00 +21°C° 0 mm 1 m/s 691 mmHg 95%
    07:00 +22°C° 0 mm 1 m/s 692 mmHg 94%
    08:00 +24°C° 0.1 mm 1 m/s 692 mmHg 83%
    09:00 +27°C° 0.1 mm 1 m/s 693 mmHg 72%
    10:00 +29°C° 0.1 mm 1 m/s 694 mmHg 62%
    11:00 +30°C° 0.2 mm 1 m/s 693 mmHg 59%
    12:00 +31°C° 0.2 mm 2 m/s 692 mmHg 56%
    13:00 +32°C° 0.2 mm 2 m/s 692 mmHg 54%
    14:00 +31°C° 0.4 mm 2 m/s 691 mmHg 58%
    15:00 +30°C° 0.4 mm 2 m/s 691 mmHg 63%
    16:00 +29°C° 0.4 mm 2 m/s 690 mmHg 67%
    17:00 +27°C° 0.9 mm 2 m/s 690 mmHg 76%
    18:00 +25°C° 0.9 mm 1 m/s 690 mmHg 84%
    19:00 +23°C° 0.9 mm 1 m/s 691 mmHg 93%
    20:00 +23°C° 0.1 mm 1 m/s 691 mmHg 94%
    21:00 +22°C° 0.1 mm 1 m/s 692 mmHg 95%
    22:00 +22°C° 0.1 mm 1 m/s 692 mmHg 96%
    23:00 +22°C° 0.2 mm 1 m/s 692 mmHg 97%

    21 Janvier, Lundi

    Heure Température Précipitation Vent Pression Humidité
    00:00 +21°C° 0.2 mm 1 m/s 692 mmHg 98%
    01:00 +21°C° 0.2 mm 1 m/s 691 mmHg 99%
    02:00 +21°C° 0 mm 1 m/s 691 mmHg 99%
    03:00 +21°C° 0 mm 1 m/s 691 mmHg 98%
    04:00 +21°C° 0 mm 1 m/s 691 mmHg 98%
    05:00 +21°C° 0 mm 1 m/s 691 mmHg 97%
    06:00 +21°C° 0 mm 1 m/s 692 mmHg 97%
    07:00 +22°C° 0 mm 1 m/s 692 mmHg 96%
    08:00 +23°C° 0 mm 1 m/s 693 mmHg 88%
    09:00 +25°C° 0 mm 1 m/s 693 mmHg 81%
    10:00 +26°C° 0 mm 1 m/s 693 mmHg 73%
    11:00 +28°C° 0.1 mm 1 m/s 693 mmHg 66%
    12:00 +29°C° 0.1 mm 2 m/s 692 mmHg 59%
    13:00 +31°C° 0.1 mm 2 m/s 692 mmHg 52%
    14:00 +31°C° 0.2 mm 2 m/s 691 mmHg 54%
    15:00 +30°C° 0.2 mm 2 m/s 691 mmHg 57%
    16:00 +30°C° 0.2 mm 2 m/s 690 mmHg 59%
    17:00 +28°C° 0.5 mm 2 m/s 690 mmHg 70%
    18:00 +25°C° 0.5 mm 1 m/s 690 mmHg 82%
    19:00 +23°C° 0.5 mm 1 m/s 690 mmHg 93%
    20:00 +23°C° 0.1 mm 1 m/s 690 mmHg 94%
    21:00 +22°C° 0.1 mm 1 m/s 691 mmHg 95%
    22:00 +22°C° 0.1 mm 1 m/s 691 mmHg 97%
    23:00 +22°C° 0 mm 1 m/s 691 mmHg 97%
    Voir plus